TimePST,TemperatureF,Dew PointF,Humidity,Sea Level PressureIn,VisibilityMPH,Wind Direction,Wind SpeedMPH,Gust SpeedMPH,PrecipitationIn,Events,Conditions,WindDirDegrees,DateUTC
12:52 AM,57.9,45.0,62,30.18,10.0,Calm,Calm,-,N/A,,Clear,0,2013-11-25 08:52:00
1:52 AM,57.0,46.9,69,30.19,10.0,Calm,Calm,-,N/A,,Clear,0,2013-11-25 09:52:00
2:52 AM,55.0,45.0,69,30.18,10.0,Calm,Calm,-,N/A,,Clear,0,2013-11-25 10:52:00
3:52 AM,53.1,44.1,71,30.17,10.0,Calm,Calm,-,N/A,,Clear,0,2013-11-25 11:52:00
4:52 AM,54.0,43.0,66,30.18,10.0,Calm,Calm,-,N/A,,Partly Cloudy,0,2013-11-25 12:52:00
5:52 AM,54.0,44.1,69,30.19,10.0,North,3.5,-,N/A,,Partly Cloudy,350,2013-11-25 13:52:00
6:52 AM,54.0,44.1,69,30.19,10.0,Calm,Calm,-,N/A,,Clear,0,2013-11-25 14:52:00
7:52 AM,62.1,43.0,50,30.21,10.0,Calm,Calm,-,N/A,,Clear,0,2013-11-25 15:52:00
8:52 AM,64.0,43.0,46,30.22,10.0,SE,3.5,-,N/A,,Clear,140,2013-11-25 16:52:00
9:52 AM,69.1,42.1,38,30.22,10.0,NW,3.5,-,N/A,,Clear,320,2013-11-25 17:52:00
10:52 AM,71.1,48.0,44,30.21,10.0,SSW,8.1,-,N/A,,Clear,200,2013-11-25 18:52:00
11:52 AM,72.0,46.0,40,30.18,10.0,WNW,9.2,-,N/A,,Clear,300,2013-11-25 19:52:00
12:52 PM,71.1,48.0,44,30.16,10.0,WNW,10.4,-,N/A,,Clear,300,2013-11-25 20:52:00
1:52 PM,71.1,48.9,45,30.15,10.0,NW,9.2,-,N/A,,Clear,310,2013-11-25 21:52:00
2:52 PM,70.0,46.0,42,30.15,10.0,NNW,13.8,-,N/A,,Partly Cloudy,330,2013-11-25 22:52:00
3:52 PM,68.0,52.0,56,30.15,10.0,NW,12.7,-,N/A,,Partly Cloudy,320,2013-11-25 23:52:00
4:52 PM,64.9,55.0,70,30.16,10.0,NNW,9.2,-,N/A,,Partly Cloudy,330,2013-11-26 00:52:00
5:52 PM,64.9,55.0,70,30.17,10.0,NNW,9.2,-,N/A,,Partly Cloudy,340,2013-11-26 01:52:00
6:52 PM,64.0,54.0,70,30.19,10.0,North,5.8,-,N/A,,Partly Cloudy,350,2013-11-26 02:52:00
7:52 PM,64.0,54.0,70,30.19,10.0,NNE,5.8,-,N/A,,Partly Cloudy,30,2013-11-26 03:52:00
8:52 PM,63.0,54.0,72,30.20,10.0,Calm,Calm,-,N/A,,Partly Cloudy,0,2013-11-26 04:52:00
9:52 PM,61.0,54.0,78,30.20,10.0,Calm,Calm,-,N/A,,Partly Cloudy,0,2013-11-26 05:52:00
10:52 PM,59.0,52.0,78,30.19,10.0,Calm,Calm,-,N/A,,Scattered Clouds,0,2013-11-26 06:52:00
11:52 PM,57.9,48.0,70,30.19,10.0,ESE,3.5,-,N/A,,Scattered Clouds,110,2013-11-26 07:52:00